Home   Weather   Locarno   Past weeks

Flag for Switzerland Past Weather in Locarno, Ticino, Switzerland — Yesterday and Last 2 Weeks

Now
65 °F

Scattered clouds.


Feels Like: 65 °F
Forecast: 40 / 57 °F
Wind: 3 mph from South

Location: Locarno-Monti

Current Time: Sep 26, 2016 at 12:37:23 PM

Latest Report: Sep 26, 2016 at 11:00 AM


Visibility: 11 mi

Pressure: 30.14 "Hg

Humidity: 69%

Dew Point: 54 °F

Location of LocarnoLocation

Past Weather in Locarno — Graph

°F

Locarno Temperature Yesterday

Maximum temperature yesterday: 73 °F (at 5:00 PM)
Minimum temperature yesterday: 57 °F (at 7:00 AM)
Average temperature yesterday: 64 °F

High & Low Weather Summary for the Past Weeks

 TemperatureHumidityPressure
High83 °F (Sep 11, 4:00 PM)100% (Sep 15, 10:00 AM)30.34 "Hg (Sep 15, 10:00 AM)
Low55 °F (Sep 17, 7:00 AM)24% (Sep 19, 4:00 PM)29.80 "Hg (Sep 17, 4:00 PM)
Average66 °F70%30.03 "Hg
* Reported Sep 11 11:00 AM — Sep 26 11:00 AM, Locarno, Weather by CustomWeather, © 2016

Note: Actual official high and low records may vary slightly from our data, if they occured in-between our weather recording intervals... More about our weather records

Advertising

Locarno Weather History for the Previous 24 Hours

Scroll right to see more
 ConditionsComfort  
Time TempWeatherWind HumidityBarometerVisibility
11:00 AM
Mon, Sep 26
65 °FScattered clouds.3 mph69%30.14 "Hg11 mi
10:00 AM60 °FCool.2 mph79%30.15 "HgN/A
9:00 AM58 °FCool.1 mph84%30.14 "HgN/A
8:00 AM58 °FPassing clouds.2 mph77%30.14 "Hg22 mi
7:00 AM55 °FCool.1 mph84%30.14 "HgN/A
6:00 AM56 °FCool.1 mph82%30.14 "HgN/A
5:00 AM57 °FCool.1 mph81%30.14 "HgN/A
4:00 AM58 °FCool.No wind81%30.13 "HgN/A
3:00 AM58 °FCool.1 mph79%30.14 "HgN/A
2:00 AM59 °FCool.2 mph77%30.13 "HgN/A
1:00 AM60 °FCool.1 mph74%30.12 "HgN/A
12:00 AM62 °FCool.1 mph68%30.12 "HgN/A
11:00 PM
Sun, Sep 25
63 °FMild.2 mph68%30.11 "HgN/A
10:00 PM64 °FMild.3 mph62%30.11 "HgN/A
9:00 PM65 °FMild.3 mph64%30.10 "HgN/A
8:00 PM67 °FPassing clouds.1 mph54%30.08 "Hg12 mi
7:00 PM69 °FMild.2 mph53%30.06 "HgN/A
6:00 PM71 °FMild.3 mph48%30.05 "HgN/A
5:00 PM73 °FPassing clouds.7 mph46%30.05 "Hg11 mi
4:00 PM72 °FMild.9 mph50%30.06 "HgN/A
3:00 PM72 °FMild.5 mph54%30.07 "HgN/A
2:00 PM71 °FHaze.6 mph53%30.09 "Hg5 mi
1:00 PM70 °FMild.3 mph57%30.12 "HgN/A
12:00 PM67 °FMild.3 mph63%30.15 "HgN/A
Weather by CustomWeather, © 2016

See weather overviewHow to use our weather pages